Simultaneous Nadir Overpasses (SNOs) Predictions

Prediction of SNOs between LANDSAT-8 and METOP-B Satellite Orbit:

Table of predicted SNOs for the next 14.0 days since TLE Epoch: 8/21/2021
Index Date (LANDSAT-8) Time (LANDSAT-8) Lat,Lon (LANDSAT-8) SZA (LANDSAT-8 ) Date (METOP-B) Time (METOP-B) Lat,Lon (METOP-B) SZA (METOP-B ) Distance(km) Time Diff (sec)
1 08/21/2021 08:33:23 81.11, 91.59 71.16 08/21/2021 08:33:10 81.12, 91.77 71.18 3.13 13
2 08/21/2021 09:22:49 -81.14,-100.45 108.79 08/21/2021 09:23:49 -81.14,-100.35 108.75 1.93 60
3 08/24/2021 04:07:39 81.11, 157.98 72.12 08/24/2021 04:07:33 81.12, 158.04 72.13 1.28 6
4 08/24/2021 04:57:05 -81.13, -34.04 107.83 08/24/2021 04:58:12 -81.14, -34.05 107.79 0.51 67
5 08/26/2021 22:52:29 -81.10, 56.67 106.93 08/26/2021 22:51:16 -81.10, 56.60 106.97 1.24 73
6 08/26/2021 23:41:54 81.13,-135.29 73.15 08/26/2021 23:41:55 81.13,-135.32 73.15 0.65 1
7 08/27/2021 00:31:20 -81.15, 32.71 106.79 08/27/2021 00:32:34 -81.15, 32.61 106.77 1.87 74
8 08/29/2021 18:26:44 -81.10, 123.02 105.93 08/29/2021 18:25:38 -81.10, 122.87 105.97 2.59 66
9 08/29/2021 19:16:09 81.12, -68.97 74.15 08/29/2021 19:16:17 81.12, -69.09 74.14 2.02 8
10 09/01/2021 14:00:59 -81.11,-170.31 104.86 09/01/2021 13:59:59 -81.12,-170.13 104.87 2.97 60



Historial Predications of SNOs between LANDSAT-8 and METOP-B
